CAPE
0 0 0 1 0 1 0 0 1 1 1 2 2 0 0 0 0 0 0 0 0 0 0 0 0 0 0 0 0 0 0 0 0 0 46 41 250 252 238 236 139 137 105 107 35 77 85
2 0 0 0 1 0 0 0 1 1 2 2 1 0 0 0 0 0 0 0 0 0 0 0 0 0 0 0 0 0 0 0 0 0 4 0 1 0 361 347 129 63 134 137 63 25 28
3 2 0 0 0 0 0 2 2 2 2 0 0 0 0 0 0 0 0 0 0 0 0 0 0 0 0 0 0 0 0 0 0 0 0 0 0 0 318 339 314 200 33 116 61 52 45
2 2 2 2 1 0 0 0 1 1 0 0 0 1 2 0 0 0 0 0 0 0 0 0 0 0 0 0 0 0 0 0 0 0 0 0 0 0 342 350 131 283 175 111 64 112 65
0 0 2 2 2 1 1 1 2 1 0 0 0 0 1 0 0 0 0 0 0 0 0 0 0 0 0 0 0 0 0 0 0 0 0 0 0 0 19 350 313 214 90 0 117 132 155
0 0 0 0 0 0 1 2 2 1 1 0 0 0 0 0 0 0 0 0 0 0 0 0 0 0 0 0 0 0 0 0 0 0 0 0 0 0 2 236 69 87 145 121 218 145 156
0 0 0 0 0 0 0 0 0 0 0 0 0 0 0 0 0 0 0 0 0 0 0 0 0 0 0 0 0 0 0 0 0 0 0 0 0 0 0 12 6 43 82 93 50 165 208
0 0 0 0 0 0 0 0 0 0 0 0 0 0 0 0 0 0 0 0 0 0 0 0 0 0 0 0 0 0 0 0 0 0 0 0 0 0 0 0 0 43 94 129 49 169 50
0 0 0 0 0 0 0 0 0 0 0 0 0 0 0 0 0 0 0 0 0 0 0 0 0 0 0 0 0 0 0 0 0 0 0 0 0 0 0 0 0 0 1 21 11 6 1
0 1 1 0 0 0 0 0 0 0 0 0 0 0 0 0 0 0 0 0 0 0 0 0 0 0 0 0 0 0 0 0 0 0 0 0 0 0 0 0 0 1 0 0 0 0 73
1 1 1 0 0 0 0 0 0 0 0 0 0 0 0 0 0 0 0 0 0 0 0 0 0 0 0 0 0 0 0 0 0 0 0 0 0 0 0 0 0 0 0 0 0 0 0
1 0 0 0 0 0 0 0 0 0 0 0 0 0 0 0 0 0 0 0 0 0 0 0 0 0 0 0 0 0 0 0 0 0 0 0 0 0 0 0 0 0 0 0 0 0 8
1 1 0 0 0 0 0 0 0 0 0 0 0 0 0 0 0 0 0 0 0 0 0 0 0 0 0 0 0 0 0 0 0 0 0 0 0 0 0 0 0 0 0 0 1 13 6
0 0 0 0 0 0 0 0 0 0 0 0 0 0 0 0 0 0 0 0 0 0 0 0 0 0 0 0 0 0 0 0 0 0 0 0 0 0 0 0 0 0 0 0 2 29 51
0 0 0 1 0 0 0 0 0 0 0 0 0 0 0 0 0 0 0 0 0 0 0 0 0 0 0 0 0 0 0 0 0 0 0 0 0 0 0 0 0 0 0 0 0 0 0
1 0 0 0 0 0 0 0 0 0 0 0 0 0 0 0 0 0 0 0 0 0 0 0 0 0 0 0 0 0 0 0 0 0 0 0 0 0 0 0 0 0 0 0 0 0 0
1 0 1 1 1 1 1 0 0 0 0 0 0 0 0 0 0 0 0 0 0 0 0 0 0 0 0 0 0 0 0 0 0 0 0 0 0 0 0 0 0 0 0 0 0 0 0
1 1 1 1 1 1 1 1 0 0 0 0 0 0 0 0 0 0 0 0 0 0 0 0 0 0 0 0 0 0 0 0 0 0 0 0 0 0 0 0 0 0 0 0 0 0 0
0 1 1 1 1 1 1 1 0 0 0 0 0 0 0 0 0 0 0 0 0 0 0 0 0 0 0 0 0 0 0 0 0 0 0 0 0 0 0 0 0 0 0 0 0 0 0
1 1 1 2 1 1 1 1 0 0 0 0 0 0 0 0 0 0 0 0 0 0 0 0 0 0 0 0 0 0 0 0 0 0 0 0 0 0 0 0 0 0 0 0 0 0 0
2 2 1 1 1 1 1 1 0 0 0 0 0 0 0 0 0 1 0 0 0 0 0 0 0 0 0 0 0 0 0 0 0 0 0 0 0 0 0 0 0 0 0 0 0 0 0
3 3 1 3 3 3 1 2 3 0 0 0 0 0 0 0 0 0 0 0 0 0 0 2 1 0 0 0 0 0 0 0 0 0 0 0 0 0 0 0 0 0 0 0 0 0 0
2 0 0 0 0 0 0 0 3 1 0 0 0 0 0 0 0 0 0 0 0 6 5 5 15 20 15 5 5 0 0 0 0 0 0 0 0 0 0 0 0 0 0 0 0 0 0
0 0 0 1 1 1 3 2 0 1 0 0 0 0 0 0 0 0 0 0 0 14 22 17 14 27 44 23 6 10 0 0 0 0 0 0 0 0 0 0 0 0 0 0 0 0 0
0 0 0 0 0 0 0 1 3 2 0 1 0 0 0 0 0 0 0 1 3 0 10 10 26 33 37 11 10 42 25 22 2 0 0 0 0 0 0 0 0 0 0 0 0 0 0
0 0 0 0 0 0 0 0 2 3 0 5 0 8 20 6 0 0 0 0 0 3 0 7 4 20 19 17 36 26 31 36 29 37 19 1 0 0 0 0 0 0 0 0 0 0 0
0 0 0 0 0 0 0 0 4 6 1 2 4 11 14 13 0 0 1 6 8 5 5 21 22 28 50 51 24 33 25 64 78 68 72 18 7 0 0 0 0 0 0 0 2 0 0
0 0 0 0 0 0 0 0 1 4 4 0 1 4 5 13 1 3 4 1 7 26 41 68 29 26 32 51 68 28 55 44 94 122 129 41 2 6 1 0 0 0 0 5 67 126 49
1 0 0 0 0 0 0 0 1 3 5 1 2 0 3 13 1 1 1 1 4 3 1 35 35 162 58 87 146 155 114 99 107 51 106 63 6 0 19 1 5 1 5 381 205 176 190
CIN
0 0 0 0 0 -1 0 0 -1 0 0 0 0 0 0 0 0 0 0 0 0 0 0 0 0 0 0 0 0 0 0 0 0 0 -174 -87 -6 -3 -5 -4 -3 -5 -2 -4 -4 -3 -3
0 0 0 0 0 0 0 0 0 0 0 0 0 0 0 0 0 0 0 0 0 0 0 0 0 0 0 0 0 0 0 0 0 0 -57 0 -7 0 -3 -3 -58 -4 -2 -8 -3 -3 -4
0 0 0 0 0 0 0 0 0 0 0 0 0 0 0 0 0 0 0 0 0 0 0 0 0 0 0 0 0 0 0 0 0 0 0 0 0 0 -3 -4 -3 -3 -14 -3 -4 -6 -21
0 0 0 0 0 0 0 0 0 0 0 0 0 0 0 0 0 0 0 0 0 0 0 0 0 0 0 0 0 0 0 0 0 0 0 0 0 0 -2 -7 -33 -6 -5 -4 -7 -17 -9
0 0 0 0 0 0 0 0 0 0 0 0 0 0 0 0 0 0 0 0 0 0 0 0 0 0 0 0 0 0 0 0 0 0 0 0 0 0 -23 -3 -4 -2 -9 0 -59 -3 -7
0 0 0 0 0 0 0 0 0 0 0 0 0 0 0 0 0 0 0 0 0 0 0 0 0 0 0 0 0 0 0 0 0 0 0 0 0 0 0 -3 -25 -42 -19 -9 -13 -16 -5
0 0 0 0 0 0 0 0 0 0 0 0 0 0 0 0 0 0 0 0 0 0 0 0 0 0 0 0 0 0 0 0 0 0 0 0 0 0 0 -2 -15 -11 -19 -11 -49 -19 -4
0 0 0 0 0 0 0 0 0 0 0 0 0 0 0 0 0 0 0 0 0 0 0 0 0 0 0 0 0 0 0 0 0 0 0 0 0 0 0 0 0 -3 -4 -5 -8 -3 -15
0 0 0 0 0 0 0 0 0 0 0 0 0 0 0 0 0 0 0 0 0 0 0 0 0 0 0 0 0 0 0 0 0 0 0 0 0 0 0 0 0 0 -2 -3 -3 -3 -19
0 0 0 0 0 0 0 0 0 0 0 0 0 0 0 0 0 0 0 0 0 0 0 0 0 0 0 0 0 0 0 0 0 0 0 0 0 0 0 0 0 -1 0 0 0 0 -1
0 0 0 0 0 0 0 0 0 0 0 0 0 0 0 0 0 0 0 0 0 0 0 0 0 0 0 0 0 0 0 0 0 0 0 0 0 0 0 0 0 0 0 0 0 0 0
0 0 0 0 0 0 0 0 0 0 0 0 0 0 0 0 0 0 0 0 0 0 0 0 0 0 0 0 0 0 0 0 0 0 0 0 0 0 0 0 0 0 0 0 0 0 -3
0 0 0 0 0 0 0 0 0 0 0 0 0 0 0 0 0 0 0 0 0 0 0 0 0 0 0 0 0 0 0 0 0 0 0 0 0 0 0 0 0 0 0 0 -2 -5 -4
0 0 0 0 0 0 0 0 0 0 0 0 0 0 0 0 0 0 0 0 0 0 0 0 0 0 0 0 0 0 0 0 0 0 0 0 0 0 0 0 0 0 0 0 -1 -5 -7
0 0 0 0 0 0 0 0 0 0 0 0 0 0 0 0 0 0 0 0 0 0 0 0 0 0 0 0 0 0 0 0 0 0 0 0 0 0 0 0 0 0 0 0 0 0 0
0 0 0 0 0 0 0 0 0 0 0 0 0 0 0 0 0 0 0 0 0 0 0 0 0 0 0 0 0 0 0 0 0 0 0 0 0 0 0 0 0 0 0 0 0 0 0
0 0 0 0 0 0 0 0 0 0 0 0 0 0 0 0 0 0 0 0 0 0 0 0 0 0 0 0 0 0 0 0 0 0 0 0 0 0 0 0 0 0 0 0 0 0 0
0 0 0 0 0 0 0 0 0 0 0 0 0 0 0 0 0 0 0 0 0 0 0 0 0 0 0 0 0 0 0 0 0 0 0 0 0 0 0 0 0 0 0 0 0 0 0
0 0 0 0 0 0 0 0 0 0 0 0 0 0 0 0 0 0 0 0 0 0 0 0 0 0 0 0 0 0 0 0 0 0 0 0 0 0 0 0 0 0 0 0 0 0 0
0 -1 0 0 -1 -2 -3 -2 0 0 0 0 0 0 0 0 0 0 0 0 0 0 0 0 0 0 0 0 0 0 0 0 0 0 0 0 0 0 0 0 0 0 0 0 0 0 0
0 -1 -1 -3 -3 -3 -4 -6 0 0 0 0 0 0 0 0 0 -2 0 0 0 0 0 0 0 0 0 0 0 0 0 0 0 0 0 0 0 0 0 0 0 0 0 0 0 0 0
0 -2 -6 -5 -8 -7 -8 -8 -6 0 0 0 0 0 0 0 0 0 0 0 0 0 0 -5 -3 0 -4 0 0 0 0 0 0 0 0 0 0 0 0 0 0 0 0 0 0 0 0
-5 0 0 0 -1 -1 0 -2 -10 -8 0 0 0 0 0 0 0 0 0 0 0 -2 -3 -4 -7 -6 -5 -14 -22 -12 0 0 0 0 0 0 0 0 0 0 0 0 0 0 0 0 0
0 0 -1 -1 -2 -2 -4 -3 -6 -5 0 0 0 0 0 0 0 0 0 0 0 -2 -3 -3 -29 -5 -4 -22 -42 -19 0 0 0 0 0 0 0 0 0 0 0 0 0 0 0 0 0
0 0 0 0 -1 -1 0 -2 0 0 0 -2 0 0 0 0 0 0 0 -1 -2 -1 -4 -2 -3 -23 -26 -14 -7 -4 -4 -5 -5 0 0 0 0 0 0 0 0 0 0 0 0 0 0
0 0 0 0 0 0 0 0 -1 -3 0 0 -2 -1 0 -1 0 0 0 0 0 -3 0 -3 -3 -11 -15 -3 -4 -3 -3 -4 -4 -4 -6 -6 0 0 0 0 0 0 0 0 0 0 0
0 0 0 0 0 0 0 0 0 0 -1 0 0 -1 -1 0 0 0 -2 -3 -2 -1 -3 -3 -8 -3 -7 -4 -3 -3 -4 -3 -4 -18 -5 -13 -6 -5 0 0 0 0 0 0 -3 0 0
0 0 0 0 0 0 0 0 0 0 0 0 0 -2 0 0 -2 -2 -1 -1 -3 -2 -1 -1 -4 -2 -4 -4 -3 -8 -6 -5 -4 -4 -6 -48 -42 -9 -5 -10 0 0 0 -3 -14 -19 -3
0 0 0 0 0 0 0 0 -1 0 0 0 0 0 -2 0 -2 -1 -3 -3 -5 -23 -5 -1 -1 -1 -14 -1 -3 -2 -2 -3 -3 -12 -9 -29 -79 -4 -13 -7 -4 -8 -3 -43 -23 -10 -20
Wind_Speed
4 4 3 2 4 7 9 11 14 15 17 17 18 19 19 19 20 20 20 20 19 19 19 18 18 18 19 20 13 10 8 17 22 23 22 18 18 16 15 20 23 17 11 8 17 21 18
3 3 4 3 2 1 3 6 8 11 13 15 18 19 19 20 20 20 20 20 20 19 19 19 18 18 22 17 11 14 19 22 23 23 21 19 16 16 15 21 13 11 15 9 17 22 22
5 4 2 3 4 4 2 2 5 7 9 12 15 16 18 18 19 19 18 18 19 19 19 19 18 16 22 11 9 15 17 19 22 23 21 19 18 19 16 18 16 10 17 12 12 17 21
7 7 6 5 4 4 5 7 7 7 9 10 12 14 15 16 17 16 16 16 17 18 19 19 19 21 13 11 11 8 19 14 19 22 21 19 20 20 20 14 15 22 16 6 8 8 11
10 9 8 9 9 9 8 8 8 8 9 10 12 13 13 13 14 13 14 15 16 18 18 19 20 19 9 8 9 8 16 19 16 21 21 19 19 21 15 16 11 12 8 12 18 15 11
14 13 12 11 11 12 13 13 13 12 12 11 12 12 13 13 12 12 13 16 17 18 19 19 18 19 12 18 10 5 11 25 7 12 23 23 21 21 24 19 15 18 15 11 15 12 10
18 17 16 15 14 14 14 15 16 17 16 16 16 15 15 14 13 13 14 17 16 16 20 16 18 16 17 11 11 14 5 6 6 16 20 16 24 22 24 16 5 19 20 17 14 19 16
22 21 21 20 19 19 18 17 17 18 20 20 19 19 18 16 14 14 15 15 14 15 15 17 18 18 17 18 15 14 13 18 20 23 22 13 21 26 16 15 19 20 21 13 20 16 19
25 25 24 24 24 23 23 22 22 21 21 22 22 22 20 18 16 13 14 16 15 15 15 11 15 15 15 17 16 17 19 22 19 22 22 22 4 11 18 17 19 18 21 13 18 15 20
28 28 28 28 28 28 27 27 26 26 24 23 24 24 22 19 12 14 12 15 10 12 16 9 10 10 12 16 13 15 21 15 14 19 20 22 24 11 20 25 20 25 11 22 20 21 19
30 30 30 30 31 31 31 30 30 29 29 28 27 26 24 20 20 11 16 16 15 13 19 10 10 10 11 14 12 13 18 17 15 13 17 16 22 16 22 20 20 24 20 20 22 24 24
30 31 31 32 33 33 33 33 33 33 32 32 31 30 27 15 11 15 13 15 13 16 19 9 7 5 6 7 6 8 12 17 15 8 10 21 5 22 25 24 24 26 26 21 18 24 28
31 31 32 33 34 34 35 35 35 36 35 35 34 32 25 21 18 16 13 12 14 15 12 11 6 3 2 2 3 3 5 8 2 1 4 7 14 8 18 12 19 16 18 17 6 7 4
31 32 32 33 34 35 36 37 37 38 38 38 36 33 17 18 19 15 12 11 16 20 11 15 11 4 3 3 4 2 2 4 7 3 16 5 5 10 4 14 6 10 16 18 7 7 5
32 32 33 34 35 36 37 38 39 40 40 40 38 21 18 15 15 13 13 11 16 18 17 14 12 10 8 8 12 6 7 7 7 7 14 18 13 11 8 3 14 5 9 24 30 30 31
32 33 34 35 36 37 38 39 40 40 41 39 33 25 18 17 12 12 18 17 25 22 22 20 16 12 13 11 10 12 10 13 12 9 10 20 23 8 6 9 6 12 8 7 6 8 23
33 34 35 36 37 38 39 39 40 41 41 38 26 25 16 15 14 18 21 24 25 21 21 23 24 25 20 20 16 17 17 17 16 12 10 14 18 14 8 10 9 8 9 10 24 5 7
34 35 35 36 37 37 38 39 39 39 41 31 25 25 16 16 21 22 26 26 26 27 21 26 26 29 28 24 28 20 22 21 13 16 15 14 19 22 15 15 11 16 11 11 14 13 24
34 34 35 36 36 37 37 37 37 37 35 30 28 28 16 18 27 25 25 27 28 28 28 25 26 25 27 30 30 28 27 23 15 18 19 15 21 27 23 18 15 20 20 22 13 15 17
33 33 34 35 35 36 36 35 35 34 33 28 26 27 19 18 24 31 32 32 30 23 30 30 31 29 30 31 28 29 28 25 17 20 21 24 27 26 27 20 19 17 20 21 20 25 19
32 33 34 34 35 35 35 34 33 32 31 25 20 23 23 27 23 26 27 30 32 32 27 27 32 31 33 33 32 32 29 28 20 22 25 25 31 30 34 33 29 25 21 17 22 22 27
32 33 34 34 35 35 35 34 31 30 31 21 26 28 25 29 31 32 31 32 32 32 31 32 31 32 33 36 38 36 34 31 33 23 28 29 35 35 40 37 33 34 29 24 24 22 25
33 33 33 34 35 35 34 34 32 28 25 23 23 24 25 28 29 31 31 32 33 30 30 33 35 34 32 31 31 33 33 31 32 35 29 30 34 35 42 34 36 43 31 30 29 27 22
31 31 31 33 34 35 35 33 31 27 21 24 23 27 26 32 28 29 29 29 30 30 35 33 29 31 30 29 34 36 38 37 38 35 33 34 35 38 42 38 48 37 32 30 31 29 24
28 29 31 33 35 36 36 35 33 27 20 21 22 23 24 30 28 29 27 27 28 31 31 33 30 28 32 33 38 41 42 43 44 42 39 38 39 41 44 45 46 37 32 32 30 32 25
27 29 31 33 35 36 37 37 36 30 20 18 20 18 20 24 25 28 28 25 27 28 31 30 29 27 32 34 39 44 46 41 44 45 38 38 40 44 44 49 54 40 31 25 26 41 25
26 28 31 33 35 36 37 38 38 33 19 14 18 15 18 23 26 25 23 25 24 28 29 23 24 24 25 31 38 41 44 39 42 38 39 40 41 44 46 50 49 34 32 31 35 35 25
24 27 30 33 35 36 37 37 38 33 20 11 17 14 13 21 26 24 23 22 24 19 22 19 23 21 20 26 32 35 38 40 40 37 39 33 36 43 44 47 50 35 26 31 22 14 17
24 26 29 32 34 36 37 37 35 31 22 10 16 12 14 18 22 26 27 27 29 25 25 21 20 23 19 22 24 28 32 35 37 41 38 41 32 35 39 37 38 28 28 20 21 17 15
Wind_Direction
348 359 16 351 312 298 294 294 295 298 301 298 298 296 292 287 280 276 272 268 260 251 244 238 236 230 207 146 328 59 65 107 199 197 205 228 213 240 200 175 187 211 274 228 113 153 63
353 18 0 5 38 339 287 279 284 290 292 295 297 296 293 288 281 275 269 262 255 252 248 241 244 239 192 215 325 88 119 134 153 171 218 234 266 264 218 194 277 257 240 38 87 146 138
324 332 358 4 342 336 334 281 278 282 284 288 291 292 290 282 278 271 260 250 240 231 227 236 256 263 214 321 295 105 116 133 154 179 206 241 268 242 257 237 256 297 246 57 61 102 151
322 322 322 323 328 327 322 319 310 299 293 291 291 291 286 282 277 261 241 226 212 199 195 202 223 204 284 305 286 93 135 118 149 180 210 242 239 238 244 283 262 193 147 95 33 43 2
322 321 320 319 320 319 315 312 309 304 299 296 296 295 287 274 267 246 233 219 194 170 161 155 171 164 53 338 95 98 133 147 138 165 185 226 205 219 269 254 305 288 310 318 257 261 332
322 321 319 319 318 318 316 314 311 307 302 296 293 293 289 277 258 232 208 176 155 126 144 153 191 175 114 145 92 32 279 221 101 119 191 205 227 236 215 230 281 264 279 326 252 230 341
323 322 321 319 317 316 315 313 311 311 308 304 302 298 292 280 254 228 200 138 131 124 150 211 137 190 91 59 87 120 81 101 109 141 163 149 197 187 214 279 358 275 268 296 326 192 288
325 324 322 320 319 317 314 312 311 310 310 309 306 304 298 283 250 222 176 166 286 237 154 156 167 170 129 124 118 117 118 139 155 166 170 130 179 226 279 285 269 275 276 309 289 308 277
326 326 324 322 320 318 315 313 312 310 310 309 307 305 298 284 251 142 187 323 238 208 161 87 131 134 123 141 137 135 146 160 155 169 168 180 214 287 275 278 277 287 273 310 293 313 283
330 329 327 326 324 322 320 316 314 312 308 304 304 304 299 282 6 13 38 5 72 62 336 52 103 105 105 134 135 133 155 140 149 170 168 186 208 169 201 209 276 270 309 279 288 285 299
332 331 330 329 327 325 322 318 316 313 311 308 305 303 296 332 304 41 348 2 12 18 320 40 79 42 101 125 58 123 149 156 161 156 167 174 189 170 187 183 183 205 297 289 284 283 286
333 334 333 330 329 328 324 321 318 314 311 310 307 306 301 12 19 345 5 355 3 328 314 359 24 46 104 131 66 68 136 164 165 158 169 190 325 194 202 195 201 226 236 249 288 287 278
333 333 334 332 329 326 324 323 319 316 313 309 306 306 319 324 332 345 349 351 334 321 349 335 341 24 120 14 15 47 139 153 126 342 184 178 190 166 183 173 182 175 179 178 142 156 188
334 334 333 332 330 327 325 323 321 317 314 311 304 301 342 329 325 337 334 333 315 315 323 329 329 330 271 315 302 293 259 228 198 258 305 298 280 195 167 178 163 172 179 184 327 159 150
337 336 334 332 330 328 326 324 321 318 315 313 305 332 333 343 338 331 314 305 315 315 313 317 314 298 288 281 306 291 260 266 251 232 290 302 292 331 184 204 181 177 185 200 226 232 252
338 336 334 333 331 329 327 325 322 319 314 314 321 318 318 331 339 320 299 290 299 302 303 301 290 293 285 272 275 284 283 292 274 256 270 298 294 294 290 302 217 198 307 295 248 220 245
336 335 333 332 331 329 328 326 324 321 316 311 327 317 327 334 322 300 290 294 293 300 299 293 289 287 286 285 273 276 289 284 296 271 267 271 294 292 300 283 269 266 247 278 276 252 277
335 334 333 333 333 332 331 329 328 326 322 329 322 312 330 324 301 296 288 290 298 294 295 289 290 286 283 283 281 269 275 279 289 273 263 264 285 277 285 298 276 276 274 240 272 280 286
336 335 335 335 334 333 333 332 331 329 334 330 317 310 320 311 296 294 292 290 292 290 290 289 284 286 283 280 279 278 278 278 279 278 269 264 277 277 281 281 284 280 275 281 258 274 283
340 339 339 338 337 336 335 335 335 334 333 333 321 313 312 311 300 295 294 292 290 288 286 286 284 286 282 277 278 277 281 271 275 275 275 272 268 271 272 280 282 266 275 271 272 273 278
343 341 341 341 340 339 338 338 336 333 331 335 326 316 318 305 308 302 299 294 291 290 285 286 282 278 279 277 276 273 273 277 267 271 271 266 268 269 272 276 282 286 279 266 266 272 272
343 342 341 341 340 338 337 336 339 337 329 333 319 316 316 304 300 297 294 290 290 289 285 286 280 280 279 274 273 273 273 268 266 269 265 262 266 269 270 271 274 274 276 275 276 273 274
341 342 343 343 343 341 340 337 337 337 336 328 324 318 312 307 302 296 293 292 289 289 288 285 284 282 280 283 282 279 279 280 276 269 265 264 264 265 267 270 271 267 267 271 275 276 274
344 346 348 348 346 344 342 340 338 338 334 323 319 318 308 301 302 299 297 295 292 290 287 285 292 280 281 293 287 279 274 274 270 270 271 269 263 265 267 268 262 270 274 274 270 272 272
348 351 351 348 346 344 341 339 337 337 337 325 319 315 309 300 300 300 300 299 297 291 290 285 285 286 290 289 281 273 270 269 264 263 264 265 266 266 263 264 270 272 274 269 270 269 266
350 350 349 348 346 344 341 338 335 334 334 327 319 315 311 305 301 300 300 302 297 296 292 291 286 289 289 279 277 268 266 269 266 264 262 262 262 262 262 263 262 270 275 278 274 269 269
352 352 350 349 347 346 344 341 336 334 338 333 325 322 309 300 296 304 306 304 304 299 296 299 299 293 285 278 272 268 266 268 264 267 263 261 256 257 258 261 265 275 277 280 260 273 266
353 351 350 350 349 349 347 343 339 336 343 343 327 326 311 304 296 305 307 302 302 302 301 310 305 295 284 281 277 272 270 267 266 265 265 265 263 261 259 260 259 263 287 270 282 298 283
348 348 348 350 350 346 348 346 343 345 353 3 334 336 328 306 306 308 300 296 295 297 295 299 299 302 306 291 285 282 273 272 271 268 267 266 254 266 267 267 270 276 276 280 290 281 275